Voltar ao catálogo

STARLINK-34780

AtivoComunicaçõesSSO
NORAD 65074·PAYLOAD·🇺🇸 United States

Lançado Jul 31, 2025 de Vandenberg Space Force Base

Loading…

Próximas Passagens (próximas 24 horas)

TLE

AtualizadoSource: CelesTrak SupGP

Época: Sep 14, 2026, 21:13 UTC

1 65074C 25165U   26257.88451389  .02114800  00000+0  74299-1 0  2573
2 65074  97.2844 329.1585 0001799  87.0523 251.1333 15.28383500    16

Acompanhe STARLINK-34780 em tempo real com AllMySat

Download on the App Store